| time (UTC) | temp F | wind direction | speed knots | gust knots | rain 1hr in | rain 24hr in | rain mn in | humidity % | barometer mb |
| 20260508004504 | 63 | 118 | 4.3 | 8.7 | 0.00 | 0.00 | 0.00 | 58 | 1010.2 |
| 20260508001505 | 62 | 113 | 5.2 | 8.7 | 0.00 | 0.00 | 0.00 | 61 | 1010.7 |
| 20260508000004 | 62 | 121 | 5.2 | 8.7 | 0.00 | 0.00 | 0.00 | 61 | 1010.9 |
| 20260507234503 | 62 | 123 | 5.2 | 10.4 | 0.00 | 0.00 | 0.00 | 64 | 1011.0 |
| 20260507233003 | 61 | 107 | 2.6 | 9.6 | 0.00 | 0.00 | 0.00 | 68 | 1011.3 |
| 20260507231504 | 60 | 4 | 2.6 | 5.2 | 0.00 | 0.00 | 0.00 | 74 | 1011.5 |
| 20260507230004 | 62 | 35 | 1.7 | 4.3 | 0.00 | 0.00 | 0.00 | 65 | 1011.4 |
| 20260507224504 | 63 | 116 | 3.5 | 6.1 | 0.00 | 0.00 | 0.00 | 61 | 1011.6 |
| 20260507223004 | 63 | 121 | 5.2 | 10.4 | 0.00 | 0.00 | 0.00 | 62 | 1011.7 |
| 20260507220005 | 63 | 124 | 6.1 | 10.4 | 0.00 | 0.00 | 0.00 | 63 | 1011.8 |
| 20260507211503 | 63 | 121 | 6.1 | 9.6 | 0.00 | 0.00 | 0.00 | 69 | 1011.8 |
| 20260507204505 | 63 | 126 | 6.1 | 10.4 | 0.00 | 0.00 | 0.00 | 76 | 1011.8 |
| 20260507203004 | 63 | 126 | 6.1 | 11.3 | 0.00 | 0.00 | 0.00 | 75 | 1011.8 |
| 20260507201503 | 63 | 125 | 6.1 | 13.0 | 0.00 | 0.00 | 0.00 | 75 | 1011.7 |
| 20260507200003 | 63 | 128 | 7.0 | 10.4 | 0.00 | 0.00 | 0.00 | 76 | 1011.9 |
| 20260507194503 | 63 | 124 | 7.0 | 12.2 | 0.00 | 0.00 | 0.00 | 76 | 1011.7 |
| 20260507193003 | 63 | 127 | 7.0 | 11.3 | 0.00 | 0.00 | 0.00 | 73 | 1011.8 |
| 20260507191503 | 63 | 123 | 6.1 | 12.2 | 0.00 | 0.00 | 0.00 | 73 | 1011.6 |
| 20260507190004 | 63 | 128 | 7.0 | 11.3 | 0.00 | 0.00 | 0.00 | 73 | 1011.7 |
| 20260507180003 | 64 | 123 | 5.2 | 9.6 | 0.00 | 0.00 | 0.00 | 71 | 1012.0 |
| 20260507174504 | 65 | 126 | 5.2 | 9.6 | 0.00 | 0.00 | 0.00 | 72 | 1011.8 |
| 20260507173003 | 65 | 125 | 5.2 | 9.6 | 0.00 | 0.00 | 0.00 | 71 | 1011.9 |
| 20260507171503 | 66 | 121 | 5.2 | 8.7 | 0.00 | 0.00 | 0.00 | 71 | 1012.0 |
| 20260507170004 | 66 | 123 | 5.2 | 9.6 | 0.00 | 0.00 | 0.00 | 71 | 1011.8 |
| 20260507164507 | 66 | 115 | 5.2 | 9.6 | 0.00 | 0.00 | 0.00 | 72 | 1011.9 |
| 20260507163006 | 67 | 118 | 4.3 | 10.4 | 0.00 | 0.00 | 0.00 | 71 | 1011.9 |
| 20260507160003 | 68 | 106 | 5.2 | 7.8 | 0.00 | 0.00 | 0.00 | 68 | 1011.9 |
| 20260507154504 | 69 | 110 | 4.3 | 9.6 | 0.00 | 0.00 | 0.00 | 67 | 1011.9 |
| 20260507153006 | 69 | 40 | 4.3 | 7.8 | 0.00 | 0.00 | 0.00 | 65 | 1011.9 |
| 20260507151503 | 71 | 131 | 2.6 | 7.0 | 0.00 | 0.00 | 0.00 | 63 | 1011.8 |
| 20260507144506 | 71 | 203 | 2.6 | 7.8 | 0.00 | 0.00 | 0.00 | 56 | 1012.1 |
| 20260507143004 | 71 | 275 | 2.6 | 5.2 | 0.00 | 0.00 | 0.00 | 55 | 1012.1 |
| 20260507141503 | 71 | 224 | 3.5 | 7.0 | 0.00 | 0.00 | 0.00 | 56 | 1012.2 |
| 20260507134504 | 71 | 232 | 3.5 | 6.1 | 0.00 | 0.00 | 0.00 | 56 | 1012.3 |
| 20260507133005 | 71 | 228 | 3.5 | 6.1 | 0.00 | 0.00 | 0.00 | 55 | 1012.3 |
| 20260507131504 | 71 | 183 | 2.6 | 6.1 | 0.00 | 0.00 | 0.00 | 56 | 1012.8 |
| 20260507124511 | 70 | 190 | 3.5 | 7.0 | 0.00 | 0.00 | 0.00 | 58 | 1012.9 |
| 20260507123009 | 70 | 204 | 3.5 | 7.8 | 0.00 | 0.00 | 0.00 | 58 | 1013.0 |
| 20260507120004 | 70 | 359 | 2.6 | 7.0 | 0.00 | 0.00 | 0.00 | 59 | 1012.9 |
| 20260507114504 | 70 | 63 | 1.7 | 5.2 | 0.00 | 0.00 | 0.00 | 58 | 1012.9 |
| 20260507111519 | 70 | 248 | 0.9 | 3.5 | 0.00 | 0.00 | 0.00 | 59 | 1013.0 |
| 20260507110005 | 69 | 342 | 2.6 | 3.5 | 0.00 | 0.00 | 0.00 | 62 | 1013.3 |
| 20260507104518 | 68 | 17 | 3.5 | 6.1 | 0.00 | 0.00 | 0.00 | 63 | 1013.4 |
| 20260507103004 | 67 | 76 | 4.3 | 7.8 | 0.00 | 0.00 | 0.00 | 63 | 1013.3 |
| 20260507101507 | 67 | 131 | 1.7 | 7.8 | 0.00 | 0.00 | 0.00 | 65 | 1013.3 |
| 20260507094503 | 68 | 230 | 2.6 | 5.2 | 0.00 | 0.00 | 0.00 | 67 | 1013.3 |
| 20260507093005 | 68 | 104 | 0.9 | 5.2 | 0.00 | 0.00 | 0.00 | 67 | 1013.2 |
| 20260507091503 | 69 | 226 | 0.9 | 2.6 | 0.00 | 0.00 | 0.00 | 65 | 1013.2 |
| 20260507090004 | 67 | 331 | 2.6 | 5.2 | 0.00 | 0.00 | 0.00 | 71 | 1013.1 |
| 20260507084504 | 66 | 327 | 3.5 | 6.1 | 0.00 | 0.00 | 0.00 | 72 | 1013.0 |
| 20260507083004 | 67 | 326 | 1.7 | 5.2 | 0.00 | 0.00 | 0.00 | 72 | 1013.2 |
| 20260507080004 | 65 | 3 | 2.6 | 6.1 | 0.00 | 0.00 | 0.00 | 74 | 1013.1 |
| 20260507074505 | 65 | 333 | 1.7 | 4.3 | 0.00 | 0.00 | 0.00 | 75 | 1013.2 |
| 20260507071505 | 64 | 328 | 0.9 | 4.3 | 0.00 | 0.00 | 0.00 | 75 | 1013.3 |
| 20260507070009 | 63 | 348 | 1.7 | 3.5 | 0.00 | 0.00 | 0.00 | 77 | 1013.1 |
| 20260507063006 | 61 | 356 | 0.0 | 3.5 | 0.00 | 0.00 | 0.00 | 77 | 1013.0 |
| 20260507060005 | 60 | 358 | 0.9 | 3.5 | 0.00 | 0.01 | 0.00 | 80 | 1012.8 |
| 20260507054504 | 59 | 62 | 1.7 | 4.3 | 0.00 | 0.01 | 0.00 | 81 | 1012.6 |
| 20260507053004 | 58 | 2 | 0.9 | 2.6 | 0.00 | 0.01 | 0.00 | 84 | 1012.5 |
| 20260507051504 | 57 | 92 | 0.9 | 2.6 | 0.00 | 0.01 | 0.00 | 86 | 1012.3 |
| 20260507050004 | 56 | 101 | 0.9 | 2.6 | 0.00 | 0.01 | 0.00 | 88 | 1012.3 |
| 20260507043003 | 54 | 137 | 1.7 | 2.6 | 0.00 | 0.01 | 0.00 | 90 | 1012.1 |
| 20260507041504 | 54 | 130 | 0.9 | 2.6 | 0.00 | 0.01 | 0.00 | 90 | 1012.0 |
| 20260507034505 | 54 | 117 | 0.9 | 2.6 | 0.00 | 0.01 | 0.00 | 90 | 1012.0 |
| 20260507033004 | 55 | 116 | 1.7 | 2.6 | 0.00 | 0.01 | 0.00 | 89 | 1011.9 |
| 20260507031504 | 55 | 110 | 0.9 | 1.7 | 0.00 | 0.01 | 0.00 | 89 | 1011.9 |
| 20260507030008 | 56 | 3 | 0.9 | 2.6 | 0.00 | 0.01 | 0.00 | 88 | 1011.9 |
| 20260507024505 | 57 | 114 | 0.9 | 4.3 | 0.00 | 0.01 | 0.00 | 89 | 1011.9 |
| 20260507023004 | 55 | 87 | 0.9 | 1.7 | 0.00 | 0.01 | 0.00 | 89 | 1011.9 |
| 20260507021515 | 56 | 122 | 1.7 | 3.5 | 0.00 | 0.01 | 0.00 | 88 | 1012.0 |
| 20260507020005 | 56 | 357 | 0.9 | 2.6 | 0.00 | 0.01 | 0.00 | 88 | 1011.9 |
| 20260507014504 | 56 | 13 | 1.7 | 4.3 | 0.00 | 0.01 | 0.00 | 87 | 1011.7 |
| 20260507011507 | 57 | 111 | 2.6 | 6.1 | 0.00 | 0.04 | 0.00 | 86 | 1011.6 |
| 20260507010005 | 57 | 81 | 3.5 | 5.2 | 0.00 | 0.08 | 0.00 | 86 | 1011.6 |